Location: ?????
(30.2541°N, 31.0910°E)
Time: 21:47:46
(UTC+00:00)

Helios 1B rocket - Visible Passes

Search period start: 30 March 2023 00:00
Search period end: 09 April 2023 00:00
Orbit: 557 x 571 km, 98.2° (Epoch: 29 March)

Date Brightness Start Highest point End Pass type
(mag) Time Alt. Az. Time Alt. Az. Time Alt. Az.
30 Mar 2.7 02:14:39 10° NNE 02:18:38 65° ESE 02:22:17 12° S visible
31 Mar 2.7 02:14:43 10° NNE 02:18:41 65° E 02:22:34 10° S visible
01 Apr 2.7 02:14:46 10° NNE 02:18:44 64° ESE 02:22:41 10° S visible
02 Apr 2.7 02:14:48 10° NNE 02:18:46 64° E 02:22:42 10° S visible
03 Apr 2.7 02:14:49 10° NNE 02:18:46 63° E 02:22:43 10° S visible
04 Apr 2.8 02:14:48 10° NNE 02:18:46 62° ESE 02:22:42 10° S visible
05 Apr 2.8 02:14:46 10° NNE 02:18:43 62° E 02:22:39 10° S visible
06 Apr 2.8 02:14:42 10° NNE 02:18:39 61° E 02:22:36 10° S visible
07 Apr 2.8 02:14:37 10° NNE 02:18:34 60° E 02:22:31 10° S visible
08 Apr 2.9 02:14:32 10° NNE 02:18:29 59° ESE 02:22:24 10° S visible
